Wind_Speed
7 8 8 11 10 9 9 10 12 19 20 21 22 23 23 22 23 25 24 25 27 27 29 30 35 34 37 40 41 44 46 50 48 55 53 53 51 60 41 47 41 50 50 43
9 9 9 10 10 10 10 11 14 20 19 22 25 24 24 21 19 17 18 20 24 26 27 29 33 35 37 39 43 47 53 56 54 52 51 56 36 53 47 45 35 36 42 45
8 11 10 10 10 10 12 13 16 17 21 24 24 20 28 22 24 23 21 23 25 27 29 33 38 42 43 47 50 54 54 53 55 55 52 43 56 42 40 37 40 40 41 43
10 11 10 10 11 10 12 17 19 21 23 22 25 21 28 23 25 24 23 25 28 31 33 36 39 42 44 44 43 47 51 54 41 40 57 43 39 40 43 45 48 44 45 44
9 10 11 13 15 16 19 22 23 24 26 28 22 22 20 23 25 25 25 25 27 29 30 35 39 40 41 42 41 46 43 45 49 48 43 39 41 46 48 46 46 46 45 46
12 13 15 17 20 22 24 26 28 31 29 17 24 23 13 21 24 26 25 27 28 29 31 34 36 38 39 42 44 41 37 48 49 44 43 44 48 48 45 48 50 49 48 52
17 18 20 20 21 25 26 28 29 20 19 18 28 25 18 22 24 25 26 26 27 29 31 33 35 39 41 40 42 45 47 48 46 45 45 46 48 48 51 52 54 50 54 55
13 15 20 22 23 26 29 29 31 31 20 22 24 18 21 25 25 25 27 28 29 30 32 35 38 41 43 43 45 46 47 48 47 48 47 50 53 53 54 57 53 54 53 55
17 17 24 24 26 28 32 32 30 30 27 23 16 22 24 25 28 28 29 31 32 33 35 36 37 38 40 42 45 46 46 50 50 52 55 59 60 59 60 61 58 55 57 55
22 22 28 30 29 35 29 31 30 25 28 25 15 21 20 31 34 32 31 34 36 37 37 37 38 38 39 41 42 43 42 48 55 55 58 59 60 60 57 55 55 57 54 47
26 26 30 32 34 31 34 33 31 31 30 29 29 21 33 35 34 37 37 38 38 38 37 35 36 38 38 40 43 40 46 51 57 61 61 61 57 55 56 57 58 53 45 42
31 32 33 35 34 33 31 31 30 31 31 31 34 34 38 35 35 38 38 36 36 35 36 37 38 39 43 45 45 49 54 55 61 61 59 56 57 59 59 55 47 42 41 39
35 36 34 33 36 32 29 30 28 29 30 31 32 24 36 33 35 35 36 36 36 36 34 38 40 44 44 52 56 58 60 62 58 57 60 60 61 53 45 41 40 39 36 35
35 33 32 30 30 31 31 28 29 29 30 30 29 29 33 33 35 35 34 35 34 35 35 37 43 53 55 55 59 60 59 58 61 63 61 54 48 45 43 42 38 35 32 28
35 33 32 30 31 31 30 28 29 31 32 31 32 32 32 32 32 32 35 35 35 36 37 40 46 48 50 51 54 59 63 61 55 51 48 46 43 40 37 35 33 30 28 27
32 32 32 30 29 30 32 33 32 30 31 30 27 27 25 27 30 33 34 35 38 39 41 42 42 44 51 58 60 57 55 53 49 44 40 37 33 32 28 25 26 25 24 25
33 32 30 28 30 27 26 26 27 26 23 23 23 23 25 31 31 31 34 35 36 37 38 39 45 52 53 52 53 52 49 42 38 35 31 27 26 27 24 25 21 22 23 24
25 25 26 24 24 25 23 21 22 22 17 16 19 24 27 27 30 31 34 35 36 36 40 46 47 45 48 52 47 42 37 27 22 23 21 19 20 18 18 18 19 19 18 15
20 20 21 20 18 21 16 11 15 14 17 20 21 22 25 27 31 30 33 35 35 40 43 39 40 45 44 35 34 33 30 24 19 15 13 13 12 13 13 13 13 11 11 11
15 14 16 18 19 20 17 15 22 25 20 20 21 23 25 27 30 33 33 33 38 38 34 36 40 39 27 29 32 31 27 23 20 17 14 13 11 11 10 9 11 12 15 17
12 14 16 18 18 18 22 23 21 20 20 23 24 25 26 28 29 30 30 33 34 29 32 34 37 27 20 26 29 27 25 23 21 19 17 15 13 12 13 14 14 15 16 14
14 15 16 18 20 21 21 22 20 21 22 23 24 25 26 28 28 28 29 31 26 28 30 32 29 19 17 23 25 24 23 21 20 19 18 17 17 16 16 15 17 17 19 22
17 17 19 20 21 23 23 23 23 23 24 24 25 26 26 26 26 26 30 22 22 27 27 27 26 17 14 18 22 22 21 20 20 21 20 19 18 19 20 20 22 22 24 26
20 21 21 22 22 21 22 22 23 23 23 24 24 24 24 24 24 29 21 17 21 25 27 24 24 21 16 16 18 19 20 21 21 21 22 23 25 27 26 26 26 26 26 26
24 22 21 21 19 20 21 21 21 22 22 22 22 21 22 22 26 22 15 17 21 24 25 20 17 20 20 21 20 19 20 20 20 23 25 28 29 30 30 29 31 32 30 30
22 21 20 20 20 20 21 21 21 21 21 20 19 19 20 23 23 15 11 16 20 24 19 17 15 17 17 20 20 19 19 20 22 25 26 28 29 29 29 28 29 29 30 31
Wind_Direction
306 307 293 291 287 279 279 279 281 286 295 297 293 292 292 289 286 283 282 274 271 268 275 275 281 284 285 287 286 286 294 304 301 297 298 297 293 272 270 306 287 285 312 311
308 299 294 290 289 293 294 294 290 299 302 306 304 305 301 300 295 287 277 274 271 274 273 274 277 281 285 285 286 293 295 295 293 290 291 280 288 297 305 319 319 313 307 302
281 294 293 295 302 308 301 300 303 303 310 312 306 321 306 309 304 303 298 291 287 286 285 283 284 285 287 288 290 292 291 291 292 286 273 273 307 319 311 315 314 312 305 301
287 287 288 293 294 295 300 304 311 313 315 318 311 310 299 307 298 297 296 294 290 288 286 286 284 284 284 285 287 288 292 288 251 249 303 315 312 308 305 303 311 306 305 300
284 284 283 280 282 290 295 303 303 306 312 316 313 314 288 293 296 295 292 290 290 284 283 286 283 281 283 283 285 289 293 272 299 308 309 306 302 301 307 306 307 307 302 302
284 286 286 286 290 296 300 306 314 317 319 328 289 309 297 284 295 293 291 290 288 286 287 288 287 284 282 288 293 293 281 290 297 304 301 300 304 306 308 310 310 309 307 306
301 295 292 294 299 305 305 306 312 311 305 301 300 310 280 294 292 293 295 293 291 291 289 285 284 284 289 290 293 292 294 293 295 303 301 304 310 309 308 309 311 309 309 310
292 305 298 296 298 301 303 309 314 313 308 299 302 308 292 301 297 297 297 296 295 292 288 286 285 285 286 285 290 292 293 296 298 307 304 309 311 309 310 312 309 308 310 309
298 301 293 297 301 305 307 311 311 310 312 317 304 302 309 291 298 297 297 298 296 295 293 294 293 291 288 287 290 291 291 295 292 299 300 304 307 308 309 308 308 308 309 310
294 298 296 300 306 304 306 307 313 312 310 304 298 307 280 300 305 302 299 299 298 296 296 294 293 292 290 289 289 288 293 304 304 299 299 302 305 306 305 304 303 304 306 302
293 296 297 304 305 305 308 308 308 304 301 302 302 293 294 303 306 304 307 309 306 304 302 298 293 291 291 294 293 294 299 299 298 300 301 302 302 302 302 302 303 303 301 300
292 294 298 298 300 299 299 298 300 298 298 298 299 304 300 306 305 308 310 308 307 305 302 299 299 294 291 305 294 298 296 294 301 302 301 299 300 300 301 302 301 299 300 301
289 292 296 298 304 299 299 298 298 296 297 298 299 301 302 304 305 307 306 306 305 302 299 299 303 295 293 292 291 296 298 301 301 298 298 298 299 300 298 297 296 297 298 299
288 292 295 297 292 294 297 298 299 299 300 301 302 305 303 306 309 310 312 311 307 305 302 302 290 294 298 301 302 301 300 297 297 298 298 299 297 295 295 295 295 296 297 298
295 298 300 297 294 293 294 295 295 295 296 298 298 301 304 308 311 313 313 312 310 310 306 298 301 303 304 304 301 298 298 299 300 298 296 295 295 297 299 299 297 296 297 296
294 297 297 295 293 295 295 297 292 293 295 299 303 303 303 304 309 313 313 311 310 310 312 311 311 311 308 305 305 306 304 301 299 299 300 297 298 300 302 300 299 299 299 300
294 294 295 300 301 304 302 302 298 299 304 309 304 301 308 311 312 313 313 313 316 319 319 318 315 313 313 313 313 310 309 311 307 302 297 300 304 303 301 303 301 303 306 307
298 301 306 310 308 308 305 303 301 300 297 302 304 307 309 311 312 316 315 320 325 325 323 319 319 322 321 323 325 329 329 327 316 307 305 307 313 318 315 314 314 316 313 313
304 310 314 317 319 318 315 306 334 318 318 317 313 312 311 314 316 319 322 328 326 324 323 325 328 327 334 348 356 357 359 356 346 342 339 332 338 336 332 333 334 335 343 2
311 316 321 321 318 313 310 303 313 317 316 312 312 314 315 318 321 326 328 325 326 326 328 331 331 335 348 7 3 5 11 16 20 20 16 11 9 0 2 14 11 24 16 20
320 324 318 316 316 308 306 311 314 310 311 312 313 313 316 321 326 326 324 326 327 330 335 338 337 341 358 11 2 3 11 16 22 28 30 33 33 32 38 44 30 27 37 51
316 316 316 318 313 310 305 308 308 307 306 308 310 314 320 326 325 323 326 329 332 338 340 345 346 345 2 10 5 12 21 28 33 35 37 45 48 40 34 38 57 64 71 80
310 313 312 313 308 306 304 304 306 306 308 311 314 320 324 324 322 325 330 332 340 345 346 351 360 352 358 10 360 4 14 29 44 52 48 39 38 48 65 76 82 84 86 86
311 311 312 312 309 306 304 304 304 307 308 311 315 320 323 322 322 329 328 338 345 348 353 351 359 13 16 18 14 30 50 53 50 49 51 62 68 76 83 81 86 92 89 87
312 312 313 311 309 310 308 307 306 307 309 313 318 323 322 320 325 328 333 347 347 353 349 355 8 35 46 54 51 51 54 55 56 65 72 79 83 84 85 86 87 90 91 91
317 316 314 311 308 304 303 304 308 310 313 318 323 322 319 323 328 326 337 348 355 355 357 14 30 41 47 56 59 54 57 65 72 77 83 87 88 87 87 88 86 89 89 91
Height
5888 5889 5889 5888 5887 5887 5887 5886 5884 5880 5878 5876 5874 5872 5870 5869 5867 5864 5862 5861 5859 5856 5854 5852 5847 5845 5841 5836 5830 5825 5820 5815 5813 5812 5809 5804 5799 5795 5792 5789 5784 5779 5774 5777
5888 5886 5885 5884 5883 5883 5882 5881 5879 5876 5874 5872 5868 5867 5864 5863 5861 5859 5857 5855 5852 5850 5848 5846 5842 5838 5835 5830 5824 5819 5814 5808 5805 5802 5798 5793 5791 5783 5780 5776 5775 5770 5768 5764
5885 5884 5882 5881 5880 5879 5878 5877 5876 5875 5872 5868 5865 5864 5857 5857 5854 5851 5850 5848 5844 5842 5840 5838 5834 5830 5826 5820 5816 5810 5805 5798 5793 5790 5788 5781 5778 5775 5771 5766 5764 5759 5757 5753
5882 5880 5880 5879 5877 5877 5876 5874 5872 5869 5867 5866 5862 5861 5853 5852 5848 5845 5842 5840 5837 5834 5831 5828 5824 5821 5817 5811 5805 5800 5795 5788 5781 5777 5773 5771 5768 5767 5765 5760 5753 5750 5747 5743
5880 5878 5877 5876 5874 5873 5872 5870 5867 5865 5862 5860 5856 5856 5853 5847 5842 5838 5835 5833 5830 5827 5823 5819 5816 5812 5808 5803 5798 5793 5788 5783 5769 5771 5767 5763 5762 5759 5754 5748 5744 5738 5733 5730
5876 5875 5874 5872 5870 5869 5867 5864 5863 5859 5856 5857 5851 5850 5853 5843 5837 5832 5830 5827 5823 5819 5815 5811 5807 5802 5798 5793 5787 5784 5780 5774 5769 5765 5760 5757 5752 5745 5740 5736 5731 5726 5721 5716
5872 5871 5869 5868 5866 5863 5862 5860 5857 5858 5858 5855 5846 5844 5841 5835 5831 5827 5824 5820 5817 5812 5807 5803 5798 5795 5790 5785 5780 5776 5770 5764 5759 5755 5750 5746 5739 5733 5729 5725 5719 5713 5707 5701
5870 5871 5865 5863 5862 5859 5856 5855 5852 5848 5849 5847 5841 5838 5833 5828 5824 5821 5817 5813 5810 5806 5802 5797 5792 5788 5783 5778 5772 5766 5760 5755 5749 5744 5738 5732 5727 5721 5715 5711 5705 5700 5694 5689
5866 5864 5860 5858 5856 5855 5851 5849 5847 5842 5840 5837 5840 5834 5826 5821 5817 5813 5810 5805 5801 5798 5793 5788 5784 5779 5775 5769 5763 5757 5752 5746 5740 5734 5727 5721 5715 5709 5703 5698 5692 5687 5682 5676
5860 5860 5855 5851 5851 5844 5847 5843 5841 5837 5833 5831 5834 5830 5823 5815 5810 5806 5802 5798 5793 5789 5784 5779 5775 5770 5764 5759 5754 5748 5742 5736 5730 5723 5717 5710 5704 5697 5691 5687 5682 5678 5672 5666
5854 5854 5852 5849 5844 5844 5839 5835 5834 5830 5828 5825 5822 5824 5813 5809 5804 5798 5793 5789 5784 5779 5775 5771 5765 5760 5755 5749 5743 5736 5731 5725 5718 5711 5704 5698 5691 5685 5680 5675 5669 5664 5658 5653
5847 5846 5845 5842 5839 5836 5835 5831 5828 5824 5822 5819 5814 5811 5803 5801 5796 5791 5786 5781 5776 5772 5767 5761 5756 5750 5745 5738 5732 5725 5719 5712 5705 5698 5691 5683 5677 5672 5666 5661 5656 5651 5647 5643
5839 5838 5838 5835 5828 5828 5827 5822 5820 5817 5814 5811 5809 5808 5796 5795 5790 5785 5780 5774 5769 5764 5758 5752 5746 5740 5734 5728 5722 5712 5705 5697 5689 5682 5676 5669 5663 5658 5653 5649 5646 5642 5638 5634
5834 5833 5831 5829 5826 5822 5818 5815 5811 5809 5806 5803 5801 5798 5791 5787 5783 5778 5772 5766 5761 5756 5749 5743 5737 5729 5722 5715 5708 5699 5690 5682 5674 5667 5660 5654 5650 5646 5642 5639 5636 5633 5630 5626
5826 5825 5822 5820 5817 5814 5811 5809 5805 5802 5799 5797 5794 5789 5785 5780 5776 5771 5765 5760 5754 5747 5741 5735 5728 5720 5712 5703 5693 5684 5675 5666 5658 5651 5646 5641 5638 5635 5632 5630 5627 5625 5621 5618
5819 5817 5814 5812 5809 5807 5803 5800 5797 5795 5792 5789 5787 5782 5779 5775 5770 5765 5759 5754 5747 5740 5733 5726 5718 5710 5700 5689 5678 5667 5658 5649 5642 5638 5634 5630 5628 5626 5624 5621 5619 5616 5614 5610
5812 5809 5807 5806 5802 5800 5797 5793 5790 5788 5785 5783 5780 5777 5773 5768 5764 5759 5753 5747 5741 5733 5726 5718 5709 5700 5688 5676 5665 5653 5644 5636 5630 5626 5625 5623 5621 5618 5617 5615 5612 5610 5606 5603
5804 5803 5801 5799 5796 5794 5791 5788 5785 5783 5780 5777 5775 5771 5768 5763 5757 5753 5747 5740 5733 5725 5718 5709 5700 5690 5679 5667 5654 5642 5633 5627 5623 5619 5618 5617 5616 5614 5613 5610 5607 5604 5600 5597
5800 5798 5797 5795 5792 5789 5787 5783 5781 5778 5776 5772 5769 5766 5762 5757 5751 5748 5741 5733 5726 5719 5711 5702 5694 5684 5674 5663 5652 5641 5632 5625 5621 5619 5617 5616 5614 5613 5610 5607 5605 5601 5597 5595
5796 5795 5794 5791 5789 5786 5783 5781 5779 5775 5772 5768 5765 5761 5757 5752 5747 5739 5734 5728 5721 5713 5706 5698 5689 5680 5672 5662 5653 5644 5636 5629 5624 5621 5618 5616 5614 5611 5609 5607 5603 5600 5597 5595
5794 5793 5791 5788 5785 5783 5780 5777 5774 5772 5771 5764 5760 5756 5751 5747 5741 5735 5729 5724 5716 5709 5702 5694 5685 5676 5670 5663 5656 5649 5640 5634 5629 5625 5621 5618 5616 5613 5610 5608 5605 5602 5600 5597
5791 5789 5786 5784 5781 5779 5775 5773 5771 5767 5763 5759 5755 5751 5746 5741 5736 5731 5725 5719 5712 5706 5699 5692 5682 5675 5669 5663 5658 5651 5645 5638 5633 5628 5625 5622 5619 5615 5613 5610 5608 5607 5605 5603
5788 5785 5783 5781 5778 5773 5770 5767 5764 5760 5756 5753 5749 5745 5741 5736 5732 5727 5721 5715 5710 5704 5697 5690 5682 5674 5669 5664 5660 5654 5647 5641 5637 5633 5630 5626 5622 5619 5617 5616 5615 5615 5614 5612
5783 5780 5779 5776 5772 5769 5765 5762 5758 5755 5752 5748 5745 5741 5737 5732 5727 5723 5718 5713 5708 5702 5695 5689 5682 5675 5670 5665 5660 5656 5651 5647 5643 5639 5635 5631 5628 5626 5625 5624 5623 5623 5622 5621
5778 5776 5773 5771 5767 5764 5760 5757 5754 5751 5747 5744 5741 5737 5733 5729 5724 5720 5716 5712 5707 5701 5695 5689 5683 5677 5673 5668 5664 5660 5656 5653 5649 5645 5642 5640 5638 5636 5635 5634 5633 5632 5632 5631
5773 5771 5769 5765 5762 5759 5756 5753 5750 5747 5744 5741 5737 5734 5729 5725 5721 5717 5715 5711 5707 5701 5695 5689 5684 5680 5676 5672 5669 5665 5662 5658 5655 5653 5651 5648 5647 5646 5644 5643 5642 5641 5641 5640